Location: ????
(33.1659°N, 35.6604°E)
Time: 14:11:43
(UTC+00:00)

Daily predictions for brighter satellites

Satellite Brightness Start Highest point End
(mag) Time Altitude Azimuth Time Altitude Azimuth Time Altitude Azimuth
CSL-04 Debris 4.2 15:53:27 10° SSE 15:58:43 60° ENE 16:04:01 10° N
Cosmos 1441 Rocket 3.6 15:59:35 10° SSE 16:03:12 41° E 16:06:47 10° NNE
Envisat 3.3 16:01:09 10° S 16:06:12 75° WSW 16:11:18 10° NNW
FengYun 1-2 T 4.3 16:01:42 10° SSE 16:07:20 87° ENE 16:13:00 10° NNW
Cosmos 1378 3.0 16:09:19 10° N 16:13:04 77° E 16:16:48 10° S
BREEZE-M DEB (TANK) 2.7 16:13:06 10° NNW 16:15:06 32° NE 16:17:08 13° ESE
Cosmos 405 4.0 16:12:32 10° NNW 16:15:55 49° W 16:19:16 10° S
ISS -3.8 16:12:38 10° SW 16:15:57 87° NW 16:19:16 10° NE
Okean 1 Rocket 3.0 16:14:55 10° S 16:19:10 58° E 16:23:26 10° NNE
Cosmos 2154 Rocket 4.4 16:13:59 10° N 16:19:48 41° E 16:25:36 10° SSE
PSLV R/B 3.0 16:18:29 10° WSW 16:21:07 60° NNW 16:23:34 12° ENE
H-2A R/B 3.8 16:21:26 10° ENE 16:22:21 11° ENE 16:23:36 10° NE
BREEZE-M DEB (TANK) 2.3 16:20:16 10° NW 16:22:46 72° NE 16:29:39 10° SE
CZ-2C R/B 4.5 16:19:24 10° NE 16:23:13 28° E 16:27:01 10° SSE
Cosmos 2251 Rocket 3.6 16:19:31 10° NNW 16:24:55 89° ENE 16:30:17 10° SSE
Lacrosse 4 Rocket 4.4 16:26:16 10° WNW 16:28:23 14° WSW 16:30:31 10° SW
Cosmos 2219 Rocket 2.3 16:26:31 10° NNW 16:32:00 56° ENE 16:37:30 10° SE
Cosmos 2333 4.2 16:26:23 10° NNW 16:32:05 88° ENE 16:37:49 10° SSE
CZ-4 R/B 3.0 16:29:40 10° SSW 16:33:14 36° W 16:36:51 10° NNW
FREGAT/IRIS 3.9 16:34:01 20° ENE 16:34:01 20° ENE 16:35:58 10° NNE
Cosmos 2184 Rocket 4.1 16:28:34 10° N 16:34:50 86° W 16:41:09 10° S
NOAA 11 4.2 16:29:37 10° SSE 16:35:03 65° ENE 16:40:29 10° N
Cosmos 1707 3.5 16:32:19 10° NNE 16:35:51 32° E 16:38:11 17° SE
Cosmos 1025 Rocket 3.3 16:35:09 10° NNW 16:39:23 68° W 16:43:36 10° S
COSMOS 2428 2.6 16:38:03 10° NNW 16:43:45 75° ENE 16:49:25 10° SSE
Cosmos 2322 4.4 16:38:15 10° NNW 16:43:51 58° WSW 16:49:24 10° S
NOSS 0 Rocket 4.4 16:38:24 10° N 16:44:16 42° ENE 16:48:09 20° ESE
GP-B 3.3 16:40:32 10° N 16:44:58 77° W 16:49:23 10° S
Cosmos 2360 Rocket 4.1 16:40:09 10° NW 16:45:02 31° WSW 16:49:55 10° SSW
NOSS 3-4 (A) 4.3 16:38:53 10° NNW 16:45:43 44° NE 16:50:35 21° ESE
NOSS 3-4 (C) 4.3 16:38:59 10° NNW 16:45:49 44° NE 16:50:38 21° ESE
SJ-6B 4.0 16:45:50 24° ENE 16:46:07 24° ENE 16:49:27 10° NNE
DELTA 2 R/B (1) 3.8 16:41:17 10° WSW 16:46:52 69° NNW 16:51:15 17° ENE
YAOGAN 1 4.2 16:44:03 10° SSW 16:48:01 36° W 16:52:02 10° NNW
Ariane Rocket 2.9 16:43:27 10° SSE 16:48:29 87° E 16:53:34 10° NNW
MONITOR-E 3.8 16:49:16 36° SSE 16:50:13 66° ENE 16:53:00 10° N
COSMOS 2455 3.5 16:44:40 10° NW 16:50:32 56° WSW 16:56:22 10° S
MOS 1 4.4 16:45:40 10° SSE 16:51:13 56° ENE 16:56:46 10° N
GPS 2-05 Rocket1 4.4 16:50:04 10° WSW 16:52:06 19° SSW 16:52:57 17° S
Nadezhda 1 Rocket 4.4 16:47:12 10° SSW 16:53:12 63° W 16:59:13 10° N
Aureole 1 Rocket 3.2 16:48:55 10° NNW 16:53:20 63° WSW 16:56:47 10° S
Cosmos 2227 Rocket 2.2 16:48:20 10° S 16:53:51 59° ESE 16:59:24 10° NNE
ARGOS 4.2 16:53:36 24° ENE 16:54:09 24° ENE 16:58:21 10° NNE
CZ-2D R/B 3.9 16:50:48 10° S 16:54:30 55° W 16:58:15 10° NNW
SAR-Lupe-2 3.6 16:52:28 10° N 16:56:02 77° WNW 16:59:34 10° SSW
Cosmos 2219 3.5 16:50:56 10° SSW 16:56:39 72° WNW 17:02:25 10° NNE
GEOS 3 Rocket 4.1 16:56:07 29° E 16:58:05 41° NE 17:02:51 10° NNW
Cosmos 2056 Rocket 3.5 16:54:25 10° SSW 16:59:50 80° ESE 17:05:16 10° NNE
Cosmos 1892 Rocket 4.2 16:56:10 10° NNE 17:00:12 34° E 17:00:12 34° E
Cosmos 389 Rocket 3.3 16:57:03 10° N 16:59:26 32° NE 16:59:26 32° NE
ADEOS Rocket 3.8 16:55:35 10° NNE 17:02:50 47° E 17:10:13 10° S
Cosmos 1939 Rocket 3.6 17:00:03 10° S 17:03:47 50° W 17:07:33 10° NNW
Cosmos 2297 Rocket 2.1 16:58:45 10° SSW 17:04:24 79° ESE 17:10:04 10° NNE
HJ-1C 3.7 17:01:53 14° S 17:04:37 64° W 17:07:57 10° NNW
Cosmos 962 Rocket 4.5 16:59:21 10° N 17:05:38 64° E 17:11:46 11° SSE
Cosmos 407 Rocket 3.8 17:02:21 10° N 17:07:14 44° ENE 17:08:09 40° E
Lacrosse 5 rocket 1.9 17:03:54 10° SW 17:07:23 48° NW 17:10:17 15° NNE
USA 186 2.6 17:09:04 39° NNE 17:09:04 39° NNE 17:11:33 10° N
Cosmos 1295 Rocket 4.3 17:02:33 10° N 17:08:43 78° E 17:14:47 10° S
Cosmos 1624 Rocket 4.1 17:06:25 10° SSW 17:11:36 75° WNW 17:16:48 10° NNE
Meteor 1-15 Rocket 4.3 17:07:57 10° S 17:13:41 82° W 17:19:32 10° N
Okean 1-7 Rocket 3.6 17:09:30 10° N 17:13:52 53° E 17:13:58 53° E
deb Centaur AC-2 4.1 17:13:47 10° W 17:18:00 56° S 17:18:22 53° SSE
CZ-2C R/B 4.5 17:23:52 24° NE 17:23:52 24° NE 17:26:52 10° NNE
Cosmos 405 Rocket 3.1 17:19:56 10° SSW 17:23:33 59° W 17:27:12 10° N
Cosmos 1140 Rocket 3.9 17:24:09 10° N 17:28:24 43° NE 17:28:24 43° NE
ATLAS 2AS CENTAUR R/B 3.0 17:21:53 10° NW 17:29:16 68° WSW 17:33:25 25° SSE
Meteor 1-4 Rocket 4.2 17:26:52 10° N 17:28:26 24° N 17:28:26 24° N
SPOT 3 Rocket 3.4 17:29:55 57° SSE 17:30:57 80° ENE 17:36:07 10° N
Cosmos 1544 Rocket 4.1 17:34:22 50° NNE 17:34:22 50° NNE 17:37:42 10° N
Cosmos 1455 Rocket 3.1 17:32:00 37° SSW 17:33:40 76° W 17:38:08 10° N
ASTEX 1 4.5 17:29:23 10° N 17:34:01 44° W 17:38:38 10° SSW
In-Cosmos 22 4.0 17:29:43 10° N 17:35:08 89° W 17:36:45 48° S
Cosmos 2333 Rocket 3.6 17:31:48 10° NW 17:36:57 36° WSW 17:42:07 10° SSW
Cosmos 2181 Rocket 4.2 17:33:58 10° SSW 17:40:08 71° W 17:46:27 10° N
Cosmos 2237 Rocket 2.0 17:36:23 10° NNW 17:42:06 86° ENE 17:42:39 74° SSE
Cosmos 2341 Rocket 4.3 17:40:48 10° NNW 17:46:56 63° W 17:51:23 19° SSW
Cosmos 1980 3.8 17:46:04 10° NNW 17:51:42 72° WSW 17:52:14 67° SSW
ISS -0.6 17:52:10 10° NW 17:53:06 11° NNW 17:53:25 11° NNW
H-2A R/B 2.5 18:02:04 54° NW 18:02:04 54° NW 18:06:05 10° NNW
Cosmos 2218 Rocket 4.0 17:57:32 10° N 18:03:55 80° W 18:04:12 78° SW
Cosmos 2366 rocket 4.0 17:59:38 10° N 18:05:57 83° W 18:05:57 83° W
Meteor 2-5 Rocket 3.9 18:00:39 10° NNW 18:06:14 72° WNW 18:06:14 72° WNW
Cosmos 864 Rocket 4.5 18:02:01 10° N 18:07:51 77° NW 18:07:51 77° NW
Resurs 01 Rocket 4.0 18:15:29 17° NNW 18:15:29 17° NNW 18:16:33 10° NNW
SL-16 R/B 3.5 18:08:00 10° NNW 18:11:05 32° N 18:11:05 32° N
CZ-3A R/B 4.4 17:18:28 10° W 18:20:29 55° SSW 18:21:33 52° S
